| time (UTC) | temp F | wind direction | speed knots | gust knots | rain 1hr in | rain 24hr in | rain mn in | humidity % | barometer mb |
| 20260504050737 | 47 | 255 | 0.0 | 0.0 | 0.00 | 0.00 | 0.00 | 92 | 1017.2 |
| 20260504050235 | 48 | 254 | 0.0 | 0.0 | 0.00 | 0.00 | 0.00 | 92 | 1017.2 |
| 20260504045732 | 49 | 241 | 0.0 | 0.0 | 0.00 | 0.00 | 0.00 | 92 | 1017.2 |
| 20260504045227 | 48 | 240 | 0.0 | 0.0 | 0.00 | 0.00 | 0.00 | 92 | 1017.3 |
| 20260504044725 | 48 | 240 | 0.0 | 0.0 | 0.00 | 0.00 | 0.00 | 93 | 1017.5 |
| 20260504044222 | 48 | 248 | 0.0 | 0.0 | 0.00 | 0.00 | 0.00 | 93 | 1017.5 |
| 20260504043719 | 49 | 297 | 0.0 | 0.0 | 0.00 | 0.00 | 0.00 | 93 | 1017.6 |
| 20260504043216 | 48 | 265 | 0.0 | 0.0 | 0.00 | 0.00 | 0.00 | 94 | 1017.6 |
| 20260504042713 | 48 | 266 | 0.0 | 0.0 | 0.00 | 0.00 | 0.00 | 94 | 1017.5 |
| 20260504042210 | 48 | 263 | 0.0 | 0.0 | 0.00 | 0.00 | 0.00 | 93 | 1017.6 |
| 20260504041706 | 48 | 263 | 0.0 | 0.0 | 0.00 | 0.00 | 0.00 | 93 | 1017.2 |
| 20260504041201 | 48 | 263 | 0.0 | 0.0 | 0.00 | 0.00 | 0.00 | 93 | 1017.3 |
| 20260504040659 | 48 | 277 | 0.0 | 0.0 | 0.00 | 0.00 | 0.00 | 92 | 1017.3 |
| 20260504040156 | 48 | 259 | 0.0 | 0.0 | 0.00 | 0.00 | 0.00 | 92 | 1017.2 |
| 20260504035652 | 48 | 259 | 0.0 | 0.0 | 0.00 | 0.00 | 0.00 | 92 | 1017.2 |
| 20260504035149 | 49 | 260 | 0.0 | 0.0 | 0.00 | 0.00 | 0.00 | 92 | 1017.2 |
| 20260504034647 | 49 | 260 | 0.0 | 0.0 | 0.00 | 0.00 | 0.00 | 91 | 1017.1 |
| 20260504034143 | 49 | 260 | 0.0 | 0.0 | 0.00 | 0.00 | 0.00 | 91 | 1017.1 |
| 20260504033641 | 49 | 260 | 0.0 | 0.0 | 0.00 | 0.00 | 0.00 | 90 | 1017.2 |
| 20260504033139 | 49 | 260 | 0.0 | 0.0 | 0.00 | 0.00 | 0.00 | 89 | 1017.2 |
| 20260504032635 | 49 | 259 | 0.0 | 0.0 | 0.00 | 0.00 | 0.00 | 89 | 1017.4 |
| 20260504032132 | 50 | 260 | 0.0 | 0.0 | 0.00 | 0.00 | 0.00 | 89 | 1017.2 |
| 20260504031629 | 50 | 260 | 0.0 | 0.0 | 0.00 | 0.00 | 0.00 | 89 | 1017.3 |
| 20260504031126 | 50 | 260 | 0.0 | 0.0 | 0.00 | 0.00 | 0.00 | 90 | 1017.3 |
| 20260504030622 | 50 | 260 | 0.0 | 0.0 | 0.00 | 0.00 | 0.00 | 90 | 1017.3 |
| 20260504030119 | 50 | 260 | 0.0 | 0.0 | 0.00 | 0.00 | 0.00 | 90 | 1017.1 |
| 20260504025616 | 50 | 260 | 0.0 | 0.0 | 0.00 | 0.00 | 0.00 | 89 | 1017.2 |
| 20260504025113 | 50 | 260 | 0.0 | 0.0 | 0.00 | 0.00 | 0.00 | 89 | 1017.2 |
| 20260504024610 | 51 | 260 | 0.0 | 0.0 | 0.00 | 0.00 | 0.00 | 88 | 1017.3 |
| 20260504024107 | 51 | 260 | 0.0 | 0.0 | 0.00 | 0.00 | 0.00 | 88 | 1017.2 |
| 20260504023603 | 51 | 260 | 0.0 | 0.0 | 0.00 | 0.00 | 0.00 | 88 | 1017.0 |
| 20260504023059 | 51 | 259 | 0.0 | 0.0 | 0.00 | 0.00 | 0.00 | 87 | 1017.1 |
| 20260504022555 | 51 | 259 | 0.0 | 0.0 | 0.00 | 0.00 | 0.00 | 86 | 1017.1 |
| 20260504022052 | 51 | 260 | 0.0 | 0.0 | 0.00 | 0.00 | 0.00 | 86 | 1017.0 |
| 20260504021549 | 51 | 260 | 0.0 | 0.0 | 0.00 | 0.00 | 0.00 | 86 | 1016.9 |
| 20260504021046 | 52 | 260 | 0.0 | 0.0 | 0.00 | 0.00 | 0.00 | 86 | 1017.0 |
| 20260504020543 | 52 | 260 | 0.0 | 0.0 | 0.00 | 0.00 | 0.00 | 86 | 1016.9 |
| 20260504020039 | 52 | 261 | 0.0 | 0.0 | 0.00 | 0.00 | 0.00 | 85 | 1016.8 |
| 20260504015536 | 53 | 263 | 0.0 | 0.0 | 0.00 | 0.00 | 0.00 | 83 | 1016.7 |
| 20260504015026 | 53 | 254 | 0.0 | 0.0 | 0.00 | 0.00 | 0.00 | 82 | 1016.6 |
| 20260504014522 | 53 | 253 | 0.0 | 0.0 | 0.00 | 0.00 | 0.00 | 81 | 1016.6 |
| 20260504014019 | 54 | 260 | 0.0 | 0.0 | 0.00 | 0.00 | 0.00 | 81 | 1016.7 |
| 20260504013517 | 54 | 261 | 0.0 | 0.0 | 0.00 | 0.00 | 0.00 | 78 | 1016.7 |
| 20260504013014 | 55 | 261 | 0.0 | 0.0 | 0.00 | 0.00 | 0.00 | 77 | 1016.6 |
| 20260504012511 | 55 | 267 | 0.0 | 0.0 | 0.00 | 0.00 | 0.00 | 75 | 1016.7 |
| 20260504012009 | 55 | 273 | 0.0 | 0.9 | 0.00 | 0.00 | 0.00 | 75 | 1016.7 |
| 20260504011505 | 55 | 256 | 0.0 | 0.0 | 0.00 | 0.00 | 0.00 | 76 | 1016.7 |
| 20260504011001 | 57 | 257 | 0.0 | 0.0 | 0.00 | 0.00 | 0.00 | 71 | 1016.4 |
| 20260504010458 | 58 | 293 | 0.0 | 0.0 | 0.00 | 0.00 | 0.00 | 66 | 1016.6 |
| 20260504005953 | 58 | 133 | 0.9 | 0.9 | 0.00 | 0.00 | 0.00 | 66 | 1016.3 |
| 20260504005450 | 57 | 264 | 0.0 | 0.0 | 0.00 | 0.00 | 0.00 | 69 | 1016.3 |
| 20260504004948 | 57 | 262 | 0.0 | 0.0 | 0.00 | 0.00 | 0.00 | 70 | 1016.3 |
| 20260504004445 | 57 | 262 | 0.0 | 0.0 | 0.00 | 0.00 | 0.00 | 70 | 1016.2 |
| 20260504003942 | 58 | 262 | 0.0 | 0.0 | 0.00 | 0.00 | 0.00 | 68 | 1016.3 |
| 20260504003438 | 59 | 262 | 0.0 | 0.0 | 0.00 | 0.00 | 0.00 | 67 | 1016.4 |
| 20260504002935 | 59 | 263 | 0.0 | 0.0 | 0.00 | 0.00 | 0.00 | 66 | 1016.2 |
| 20260504002432 | 60 | 263 | 0.0 | 0.0 | 0.00 | 0.00 | 0.00 | 65 | 1016.3 |
| 20260504001930 | 61 | 262 | 0.0 | 0.0 | 0.00 | 0.00 | 0.00 | 62 | 1016.1 |
| 20260504001427 | 63 | 267 | 0.0 | 0.0 | 0.00 | 0.00 | 0.00 | 59 | 1016.2 |
| 20260504000924 | 65 | 254 | 0.0 | 0.9 | 0.00 | 0.00 | 0.00 | 54 | 1016.3 |
| 20260504000423 | 66 | 216 | 1.7 | 1.7 | 0.00 | 0.00 | 0.00 | 48 | 1016.1 |
| 20260503235918 | 66 | 228 | 1.7 | 1.7 | 0.00 | 0.00 | 0.00 | 47 | 1016.4 |
| 20260503235416 | 66 | 232 | 1.7 | 1.7 | 0.00 | 0.00 | 0.00 | 46 | 1016.4 |
| 20260503234913 | 67 | 192 | 1.7 | 1.7 | 0.00 | 0.00 | 0.00 | 46 | 1016.4 |
| 20260503234411 | 67 | 192 | 1.7 | 1.7 | 0.00 | 0.00 | 0.00 | 45 | 1016.5 |
| 20260503233908 | 68 | 232 | 2.6 | 2.6 | 0.00 | 0.00 | 0.00 | 44 | 1016.3 |
| 20260503233405 | 68 | 225 | 1.7 | 1.7 | 0.00 | 0.00 | 0.00 | 43 | 1016.4 |
| 20260503232901 | 68 | 219 | 2.6 | 2.6 | 0.00 | 0.00 | 0.00 | 43 | 1016.5 |
| 20260503232358 | 68 | 228 | 3.5 | 3.5 | 0.00 | 0.00 | 0.00 | 42 | 1016.8 |
| 20260503231856 | 68 | 236 | 2.6 | 2.6 | 0.00 | 0.00 | 0.00 | 43 | 1016.4 |
| 20260503231353 | 69 | 219 | 1.7 | 2.6 | 0.00 | 0.00 | 0.00 | 42 | 1016.4 |
| 20260503230849 | 68 | 229 | 1.7 | 1.7 | 0.00 | 0.00 | 0.00 | 42 | 1016.5 |
| 20260503230346 | 69 | 238 | 2.6 | 3.5 | 0.00 | 0.00 | 0.00 | 41 | 1016.6 |
| 20260503225844 | 68 | 235 | 4.3 | 5.2 | 0.00 | 0.00 | 0.00 | 41 | 1016.7 |
| 20260503225339 | 69 | 182 | 1.7 | 1.7 | 0.00 | 0.00 | 0.00 | 39 | 1016.7 |
| 20260503224836 | 68 | 254 | 0.9 | 0.9 | 0.00 | 0.00 | 0.00 | 40 | 1016.5 |
| 20260503224333 | 69 | 224 | 2.6 | 2.6 | 0.00 | 0.00 | 0.00 | 40 | 1016.4 |
| 20260503223831 | 69 | 239 | 3.5 | 5.2 | 0.00 | 0.00 | 0.00 | 39 | 1016.5 |
| 20260503223328 | 69 | 229 | 2.6 | 2.6 | 0.00 | 0.00 | 0.00 | 39 | 1016.3 |
| 20260503222824 | 69 | 220 | 5.2 | 6.1 | 0.00 | 0.00 | 0.00 | 39 | 1016.5 |
| 20260503222323 | 69 | 238 | 5.2 | 7.0 | 0.00 | 0.00 | 0.00 | 39 | 1016.4 |
| 20260503221821 | 70 | 205 | 3.5 | 3.5 | 0.00 | 0.00 | 0.00 | 38 | 1016.3 |
| 20260503221319 | 69 | 274 | 3.5 | 5.2 | 0.00 | 0.00 | 0.00 | 41 | 1016.5 |
| 20260503220814 | 70 | 246 | 0.0 | 0.0 | 0.00 | 0.00 | 0.00 | 39 | 1016.3 |
| 20260503220311 | 69 | 229 | 3.5 | 3.5 | 0.00 | 0.00 | 0.00 | 38 | 1016.4 |
| 20260503215803 | 69 | 312 | 3.5 | 3.5 | 0.00 | 0.00 | 0.00 | 39 | 1016.3 |
| 20260503215300 | 69 | 295 | 3.5 | 5.2 | 0.00 | 0.00 | 0.00 | 39 | 1016.3 |
| 20260503214758 | 69 | 208 | 3.5 | 3.5 | 0.00 | 0.00 | 0.00 | 40 | 1016.3 |
| 20260503214255 | 69 | 232 | 3.5 | 5.2 | 0.00 | 0.00 | 0.00 | 39 | 1016.4 |
| 20260503213752 | 69 | 289 | 1.7 | 2.6 | 0.00 | 0.00 | 0.00 | 40 | 1016.4 |
| 20260503213249 | 69 | 232 | 2.6 | 3.5 | 0.00 | 0.00 | 0.00 | 39 | 1016.4 |
| 20260503212745 | 69 | 208 | 6.1 | 7.8 | 0.00 | 0.00 | 0.00 | 40 | 1016.6 |
| 20260503212243 | 69 | 265 | 4.3 | 5.2 | 0.00 | 0.00 | 0.00 | 41 | 1016.6 |
| 20260503211741 | 69 | 267 | 2.6 | 2.6 | 0.00 | 0.00 | 0.00 | 41 | 1016.6 |
| 20260503211237 | 69 | 252 | 3.5 | 5.2 | 0.00 | 0.00 | 0.00 | 39 | 1016.7 |
| 20260503210732 | 69 | 243 | 3.5 | 3.5 | 0.00 | 0.00 | 0.00 | 41 | 1016.7 |
| 20260503210230 | 69 | 242 | 3.5 | 3.5 | 0.00 | 0.00 | 0.00 | 40 | 1016.5 |
| 20260503205725 | 69 | 252 | 2.6 | 2.6 | 0.00 | 0.00 | 0.00 | 41 | 1016.6 |
| 20260503205221 | 69 | 242 | 5.2 | 5.2 | 0.00 | 0.00 | 0.00 | 37 | 1016.7 |
| 20260503204719 | 69 | 244 | 1.7 | 1.7 | 0.00 | 0.00 | 0.00 | 39 | 1016.7 |
| 20260503204217 | 68 | 237 | 2.6 | 3.5 | 0.00 | 0.00 | 0.00 | 40 | 1016.8 |
| 20260503203713 | 68 | 255 | 1.7 | 2.6 | 0.00 | 0.00 | 0.00 | 41 | 1016.7 |
| 20260503203211 | 68 | 312 | 4.3 | 5.2 | 0.00 | 0.00 | 0.00 | 42 | 1017.0 |
| 20260503202708 | 68 | 277 | 4.3 | 5.2 | 0.00 | 0.00 | 0.00 | 42 | 1017.0 |
| 20260503202206 | 67 | 285 | 2.6 | 2.6 | 0.00 | 0.00 | 0.00 | 40 | 1017.2 |
| 20260503201704 | 67 | 273 | 5.2 | 6.1 | 0.00 | 0.00 | 0.00 | 42 | 1017.3 |
| 20260503201201 | 69 | 283 | 7.0 | 11.3 | 0.00 | 0.00 | 0.00 | 41 | 1017.2 |
| 20260503200657 | 67 | 247 | 0.0 | 0.0 | 0.00 | 0.00 | 0.00 | 41 | 1017.5 |
| 20260503200154 | 68 | 218 | 2.6 | 2.6 | 0.00 | 0.00 | 0.00 | 41 | 1017.5 |
| 20260503195650 | 68 | 209 | 4.3 | 5.2 | 0.00 | 0.00 | 0.00 | 42 | 1017.7 |
| 20260503195148 | 68 | 235 | 4.3 | 5.2 | 0.00 | 0.00 | 0.00 | 40 | 1017.7 |
| 20260503194644 | 68 | 288 | 3.5 | 3.5 | 0.00 | 0.00 | 0.00 | 42 | 1017.6 |
| 20260503194139 | 67 | 251 | 7.8 | 9.6 | 0.00 | 0.00 | 0.00 | 41 | 1017.8 |
| 20260503193636 | 68 | 281 | 5.2 | 6.1 | 0.00 | 0.00 | 0.00 | 43 | 1017.8 |
| 20260503193132 | 68 | 275 | 3.5 | 3.5 | 0.00 | 0.00 | 0.00 | 43 | 1018.0 |
| 20260503192622 | 67 | 252 | 2.6 | 2.6 | 0.00 | 0.00 | 0.00 | 42 | 1018.2 |
| 20260503192118 | 67 | 183 | 3.5 | 5.2 | 0.00 | 0.00 | 0.00 | 42 | 1018.4 |
| 20260503191615 | 67 | 221 | 6.1 | 7.8 | 0.00 | 0.00 | 0.00 | 41 | 1018.6 |
| 20260503191111 | 67 | 240 | 7.0 | 8.7 | 0.00 | 0.00 | 0.00 | 41 | 1018.5 |
| 20260503190609 | 67 | 227 | 4.3 | 5.2 | 0.00 | 0.00 | 0.00 | 41 | 1018.5 |
| 20260503190106 | 68 | 246 | 6.1 | 7.8 | 0.00 | 0.00 | 0.00 | 41 | 1018.5 |
| 20260503185603 | 67 | 259 | 2.6 | 3.5 | 0.00 | 0.00 | 0.00 | 41 | 1018.6 |
| 20260503185102 | 67 | 245 | 6.1 | 7.8 | 0.00 | 0.00 | 0.00 | 42 | 1018.7 |
| 20260503184557 | 65 | 216 | 4.3 | 6.1 | 0.00 | 0.00 | 0.00 | 44 | 1018.6 |
| 20260503184055 | 66 | 221 | 2.6 | 5.2 | 0.00 | 0.00 | 0.00 | 44 | 1018.9 |
| 20260503183551 | 66 | 201 | 2.6 | 3.5 | 0.00 | 0.00 | 0.00 | 42 | 1018.8 |
| 20260503183049 | 66 | 207 | 4.3 | 6.1 | 0.00 | 0.00 | 0.00 | 43 | 1018.8 |
| 20260503182547 | 66 | 251 | 6.1 | 7.0 | 0.00 | 0.00 | 0.00 | 42 | 1018.9 |
| 20260503182045 | 66 | 234 | 1.7 | 1.7 | 0.00 | 0.00 | 0.00 | 43 | 1019.0 |
| 20260503181541 | 66 | 221 | 5.2 | 6.1 | 0.00 | 0.00 | 0.00 | 43 | 1018.9 |
| 20260503181038 | 66 | 245 | 8.7 | 9.6 | 0.00 | 0.00 | 0.00 | 42 | 1019.0 |
| 20260503180535 | 65 | 244 | 5.2 | 7.0 | 0.00 | 0.00 | 0.00 | 44 | 1018.9 |
| 20260503180032 | 66 | 248 | 4.3 | 7.0 | 0.00 | 0.00 | 0.00 | 42 | 1019.0 |
| 20260503175524 | 66 | 224 | 4.3 | 5.2 | 0.00 | 0.00 | 0.00 | 41 | 1019.0 |
| 20260503175021 | 66 | 224 | 0.9 | 0.9 | 0.00 | 0.00 | 0.00 | 42 | 1019.0 |
| 20260503174519 | 65 | 114 | 2.6 | 2.6 | 0.00 | 0.00 | 0.00 | 43 | 1019.2 |
| 20260503174014 | 64 | 243 | 1.7 | 1.7 | 0.00 | 0.00 | 0.00 | 43 | 1019.1 |
| 20260503173510 | 65 | 276 | 4.3 | 5.2 | 0.00 | 0.00 | 0.00 | 43 | 1019.1 |
| 20260503173006 | 64 | 159 | 1.7 | 1.7 | 0.00 | 0.00 | 0.00 | 43 | 1019.1 |
| 20260503172504 | 64 | 285 | 3.5 | 3.5 | 0.00 | 0.00 | 0.00 | 46 | 1019.3 |
| 20260503172000 | 64 | 278 | 0.9 | 1.7 | 0.00 | 0.00 | 0.00 | 45 | 1019.4 |
| 20260503171456 | 66 | 305 | 1.7 | 2.6 | 0.00 | 0.00 | 0.00 | 42 | 1019.5 |
| 20260503170954 | 64 | 233 | 0.0 | 0.9 | 0.00 | 0.00 | 0.00 | 43 | 1019.7 |
| 20260503170450 | 65 | 60 | 3.5 | 3.5 | 0.00 | 0.00 | 0.00 | 45 | 1019.6 |
| 20260503150842 | 60 | 246 | 0.9 | 0.9 | 0.00 | 0.00 | 0.00 | 49 | 1020.4 |
| 20260503150338 | 60 | 252 | 0.0 | 0.0 | 0.00 | 0.00 | 0.00 | 52 | 1020.4 |
| 20260503140303 | 58 | 341 | 2.6 | 2.6 | 0.00 | 0.00 | 0.00 | 58 | 1020.0 |
| 20260503131232 | 55 | 253 | 0.9 | 0.9 | 0.00 | 0.00 | 0.00 | 66 | 1020.0 |
| 20260503130730 | 54 | 142 | 0.9 | 1.7 | 0.00 | 0.00 | 0.00 | 64 | 1020.1 |
| 20260503130227 | 54 | 40 | 4.3 | 6.1 | 0.00 | 0.00 | 0.00 | 65 | 1019.9 |
| 20260503120153 | 46 | 272 | 0.0 | 0.0 | 0.00 | 0.00 | 0.00 | 99 | 1019.6 |
| 20260503110620 | 40 | 265 | 0.0 | 0.0 | 0.00 | 0.00 | 0.00 | 99 | 1019.0 |
| 20260503110118 | 39 | 268 | 0.0 | 0.0 | 0.00 | 0.00 | 0.00 | 99 | 1019.0 |
| 20260503090508 | 42 | 267 | 0.0 | 0.0 | 0.00 | 0.00 | 0.00 | 99 | 1017.3 |
| 20260503081433 | 42 | 270 | 0.0 | 0.0 | 0.00 | 0.00 | 0.00 | 99 | 1017.2 |
| 20260503080931 | 43 | 270 | 0.0 | 0.0 | 0.00 | 0.00 | 0.00 | 99 | 1017.1 |
| 20260503080427 | 43 | 270 | 0.0 | 0.0 | 0.00 | 0.00 | 0.00 | 99 | 1016.9 |
| 20260503072904 | 44 | 271 | 0.0 | 0.0 | 0.00 | 0.00 | 0.00 | 99 | 1016.7 |
| 20260503072401 | 44 | 271 | 0.0 | 0.0 | 0.00 | 0.00 | 0.00 | 99 | 1016.6 |
| 20260503071858 | 44 | 272 | 0.0 | 0.0 | 0.00 | 0.00 | 0.00 | 99 | 1016.6 |
| 20260503071355 | 44 | 263 | 0.0 | 0.0 | 0.00 | 0.00 | 0.00 | 99 | 1016.4 |
| 20260503070850 | 44 | 261 | 0.0 | 0.0 | 0.00 | 0.00 | 0.00 | 99 | 1016.5 |
| 20260503070349 | 44 | 261 | 0.0 | 0.0 | 0.00 | 0.00 | 0.00 | 99 | 1016.3 |
| 20260503060308 | 47 | 256 | 0.0 | 0.0 | 0.00 | 0.00 | 0.00 | 98 | 1016.1 |
| 20260503054755 | 48 | 256 | 0.0 | 0.0 | 0.00 | 0.00 | 0.00 | 98 | 1016.3 |
| 20260503054251 | 48 | 256 | 0.0 | 0.0 | 0.00 | 0.00 | 0.00 | 98 | 1016.4 |
| 20260503053749 | 48 | 256 | 0.0 | 0.0 | 0.00 | 0.00 | 0.00 | 98 | 1016.3 |
| 20260503053243 | 48 | 256 | 0.0 | 0.0 | 0.00 | 0.00 | 0.00 | 98 | 1016.4 |
| 20260503052738 | 48 | 256 | 0.0 | 0.0 | 0.00 | 0.00 | 0.00 | 98 | 1016.5 |